Temp
43 43 42 42 42 43 44 44 42 40 40 39 39 38 37 37 38 38 39 39 40 41 41 40 40 40 39 39 39 39 39 39 39 39 39 39 39 39 39 39 39 39 39 39 40 40 40 40 40 40 40 40 40 40 40 40 40 39 39 39 39 39 39 38 38 38 38 38 38
41 39 38 38 38 39 40 40 39 38 37 37 37 36 36 37 38 38 39 39 40 40 40 40 39 38 38 38 39 39 39 39 39 39 38 38 38 38 38 39 39 39 40 40 40 40 40 40 40 40 40 40 40 39 39 40 39 39 39 38 38 38 38 37 37 37 38 38 38
38 37 36 37 37 38 39 39 37 36 35 35 36 36 37 38 39 39 39 39 39 39 39 39 38 37 38 38 38 39 39 39 38 38 38 38 38 38 38 39 39 39 40 40 40 40 40 40 40 40 39 39 39 39 39 39 39 39 38 38 38 39 39 38 38 38 38 38 38
35 35 35 35 35 35 35 36 35 34 34 36 36 36 37 39 40 40 39 38 37 38 38 37 37 37 37 37 38 38 38 37 37 38 38 38 38 38 38 39 39 39 39 40 40 40 40 40 40 39 39 39 38 38 38 39 39 39 39 39 39 39 39 39 39 39 39 39 38
34 34 33 33 33 33 33 32 33 34 35 36 37 38 39 39 39 38 38 38 37 37 37 36 37 37 37 37 37 37 37 37 37 37 38 37 38 38 38 38 38 38 39 39 40 40 40 40 40 39 39 39 38 38 39 39 39 39 39 39 39 39 39 39 39 39 39 39 38
34 33 32 32 32 32 32 32 33 34 35 36 37 37 37 38 38 38 37 37 36 36 35 36 36 36 36 36 36 36 36 37 37 37 37 37 38 38 39 39 39 39 39 40 40 40 40 40 40 39 39 39 39 39 39 39 39 38 38 38 39 39 39 39 39 39 39 38 38
33 33 32 32 32 32 33 33 33 34 35 36 36 36 36 36 36 35 35 35 35 36 36 36 36 36 36 36 36 36 36 37 38 38 39 39 39 39 39 39 39 40 40 40 40 40 40 39 39 39 39 38 39 39 39 39 39 38 38 38 39 39 39 39 39 39 39 38 37
32 32 32 33 33 33 33 34 35 36 36 37 35 35 35 35 35 35 35 35 35 36 36 36 36 36 36 36 36 37 37 37 38 39 39 39 39 39 39 39 39 39 40 40 40 39 39 39 39 39 39 39 39 39 39 39 39 39 39 39 40 40 40 40 40 39 39 38 37
33 33 33 33 34 34 34 34 35 36 36 35 34 34 34 34 35 35 35 35 35 35 35 35 35 36 36 37 37 37 37 38 38 38 38 38 38 39 39 39 39 39 40 40 40 39 39 40 40 40 40 40 40 40 40 39 39 38 38 38 39 38 38 38 37 37 37 37 36
33 33 33 34 34 34 34 34 34 35 35 34 34 34 34 35 35 35 35 35 35 35 35 35 36 36 37 37 38 38 38 38 38 38 38 38 39 39 39 39 39 40 40 40 40 40 39 40 40 40 40 40 40 39 39 38 38 37 37 38 38 37 37 36 36 36 36 36 35
33 33 33 33 34 34 34 34 34 34 34 34 34 34 35 35 35 35 35 35 35 35 36 36 37 37 37 38 38 38 38 38 38 39 39 39 39 40 40 40 40 40 40 40 40 40 40 39 39 39 39 39 38 38 37 37 36 36 36 36 36 36 36 35 35 35 35 35 34
32 32 32 33 33 33 34 34 34 34 34 34 34 34 35 35 35 35 36 36 36 37 37 38 38 38 39 39 39 39 39 39 40 40 40 40 40 40 41 41 41 40 40 40 39 39 38 37 37 37 37 36 37 36 36 35 35 34 34 34 34 34 34 34 34 34 34 34 33
31 32 32 32 32 33 33 33 33 33 33 34 34 34 35 35 36 36 36 37 37 38 38 39 39 39 40 40 40 40 40 40 40 40 40 39 39 40 40 39 39 39 39 39 38 37 37 36 36 36 36 36 36 35 35 34 34 33 32 32 32 32 32 33 33 33 33 32 32
31 31 31 31 31 32 32 32 33 33 33 33 34 34 34 36 36 37 37 38 39 39 39 40 40 40 40 41 40 40 40 39 38 38 38 38 38 38 38 38 38 38 38 38 37 37 37 36 36 36 36 35 35 34 34 34 33 33 33 32 32 32 32 32 31 31 31 30 30
31 31 31 30 31 31 32 32 33 33 33 33 33 34 35 37 37 37 38 39 39 40 40 40 40 40 41 41 40 39 38 37 36 36 36 36 36 37 37 37 37 37 37 37 36 36 36 36 35 35 34 34 34 33 33 34 33 33 33 32 32 31 31 31 30 30 29 30 30
32 31 31 31 31 31 31 32 33 33 33 33 33 34 35 37 36 36 37 37 38 39 40 40 40 40 40 39 38 37 36 35 35 35 35 35 35 35 35 35 35 35 34 34 34 34 33 33 33 33 33 33 32 32 32 32 32 31 31 31 30 30 30 30 30 30 30 30 30
32 31 31 31 31 31 32 32 32 33 33 33 33 33 34 34 34 35 35 35 36 37 39 40 39 38 37 36 35 34 34 33 33 34 34 34 34 34 33 33 33 33 32 32 32 31 31 31 31 31 31 31 31 30 30 30 30 30 30 30 30 30 30 31 31 31 31 31 30
32 31 31 31 31 32 32 31 32 32 32 32 32 32 32 33 33 34 34 35 35 37 38 40 38 36 35 34 33 33 32 33 33 33 33 33 33 33 32 32 32 32 31 31 31 31 31 31 31 31 31 30 30 30 30 30 30 30 30 31 31 31 31 31 31 31 31 31 31
32 31 31 31 32 32 32 32 32 32 32 32 32 32 32 33 34 34 35 36 36 37 38 38 36 34 33 33 32 32 32 32 32 32 32 32 32 32 32 32 32 31 31 31 31 31 31 32 32 32 31 31 31 31 30 30 30 30 30 31 31 31 31 31 30 31 31 30 31
32 32 32 32 31 31 32 32 32 32 32 33 33 33 33 34 35 35 36 37 37 37 36 36 34 33 33 32 32 32 32 32 32 32 33 33 33 33 33 33 33 32 32 32 32 32 32 32 33 32 32 32 31 31 30 30 29 29 29 29 29 29 29 29 29 29 29 29 29
33 32 32 32 32 32 32 32 32 32 33 34 34 35 35 35 36 37 37 38 37 36 35 35 34 34 34 34 34 34 33 32 33 33 34 34 34 34 34 34 33 33 32 32 32 32 32 32 32 31 31 30 30 29 29 28 28 27 27 27 27 27 27 27 27 27 27 27 27
33 33 32 32 32 32 32 33 33 34 34 36 36 37 37 37 37 38 38 37 37 36 36 35 34 34 35 35 35 35 35 34 34 34 34 34 34 34 34 33 32 32 31 31 31 31 30 30 30 29 29 28 28 27 27 27 26 25 25 25 25 25 25 25 26 26 26 26 26
34 33 33 32 33 34 34 35 35 36 37 37 38 38 38 38 38 38 37 37 36 36 36 35 35 35 35 35 35 34 34 34 33 33 33 33 34 33 32 31 31 31 31 30 30 29 29 28 28 27 27 26 26 25 25 26 25 25 24 24 24 24 24 24 24 24 24 24 24
33 34 35 36 36 37 37 38 39 39 39 39 40 40 40 39 39 38 37 37 37 36 36 35 35 34 34 34 34 33 33 33 33 33 33 33 33 32 31 31 31 31 30 30 31 31 30 29 28 27 26 25 25 25 25 25 24 24 24 24 23 23 23 23 23 23 23 23 23
34 36 37 40 39 39 39 40 40 41 41 41 41 40 40 39 39 38 37 37 37 36 35 34 33 33 33 33 33 33 33 33 34 34 34 33 32 31 31 30 30 30 30 30 34 36 36 33 32 29 27 25 25 25 25 24 24 24 23 23 23 23 23 23 22 22 22 22 22
36 37 38 40 40 40 40 41 41 41 41 41 41 40 40 39 38 37 36 36 35 34 34 33 32 32 32 31 32 33 34 35 35 34 33 32 31 30 30 30 30 30 31 33 36 37 37 37 37 33 29 26 25 24 24 23 23 23 22 22 22 22 22 23 23 23 23 23 23
36 37 37 40 40 39 40 40 40 40 40 40 40 39 39 38 37 36 35 34 33 33 32 32 32 32 31 32 33 34 35 35 34 33 31 30 30 29 29 29 29 30 31 34 36 36 37 37 37 36 33 27 25 24 23 22 22 22 21 21 21 21 21 22 23 24 24 25 24
35 35 37 39 38 38 38 38 38 38 38 38 37 37 36 36 35 34 33 32 32 32 32 33 33 33 33 34 34 34 33 32 32 31 30 29 28 28 28 28 28 29 31 34 35 36 36 37 37 37 35 30 25 23 22 21 21 21 21 20 21 21 21 22 23 24 25 25 25
33 33 34 36 36 36 36 35 35 35 36 35 35 35 34 34 34 33 33 33 33 34 35 36 36 36 35 34 33 32 30 30 29 28 28 27 27 27 26 26 26 28 30 34 35 35 36 36 36 37 36 35 27 23 21 21 21 21 21 21 21 22 22 23 24 25 25 25 26
33 33 33 35 35 35 35 34 34 34 35 35 34 34 34 34 34 35 35 35 36 36 37 37 36 35 33 31 30 29 28 28 28 27 27 26 26 26 26 26 25 27 29 33 34 34 35 36 36 36 36 36 30 25 21 21 21 21 22 23 22 23 23 24 24 24 24 25 25
33 34 34 35 35 35 35 35 35 35 35 35 36 36 36 36 36 36 36 36 37 36 36 35 33 32 30 29 28 28 28 28 28 27 26 26 25 25 24 24 23 25 28 32 33 34 35 36 36 36 36 36 31 26 23 22 22 22 22 23 23 23 23 23 23 24 24 24 24
34 35 35 35 35 35 35 35 35 36 36 36 37 37 37 37 37 37 37 37 36 35 34 33 31 31 30 29 29 29 29 28 28 27 26 24 23 23 22 22 21 23 27 31 33 34 35 35 36 36 35 36 31 27 23 22 22 22 22 22 22 22 23 24 24 24 24 24 24
35 35 36 35 35 35 35 36 36 37 37 37 37 37 37 37 37 37 37 36 34 33 32 31 30 30 30 30 30 29 28 27 26 25 24 22 21 20 20 21 21 23 27 31 33 34 35 35 35 35 35 36 31 26 23 22 21 22 22 22 22 22 22 22 23 24 24 24 24
35 35 36 35 35 36 36 36 37 37 36 37 37 37 37 36 36 36 35 34 32 31 30 30 29 29 29 28 28 27 26 26 25 23 21 20 19 18 19 19 19 24 28 31 33 34 34 35 35 35 35 35 29 25 22 21 21 21 21 22 22 22 23 23 23 24 24 25 26
35 35 35 35 36 36 36 36 36 36 36 36 36 36 36 36 35 35 33 31 30 29 29 28 27 27 26 25 24 24 24 23 23 22 20 19 18 17 18 19 19 23 28 31 32 33 34 34 35 35 35 33 28 24 21 21 21 21 21 22 22 22 23 24 25 26 27 27 27
34 34 34 35 36 36 36 36 36 36 36 35 34 34 35 35 34 33 31 29 28 28 28 27 26 25 25 24 23 22 22 22 21 21 19 18 17 17 17 18 18 22 27 30 32 33 33 34 34 35 34 30 25 22 21 20 21 21 21 21 22 24 26 27 28 28 28 27 28
35 34 34 34 35 36 36 36 36 35 35 34 33 33 33 33 32 31 29 27 28 28 27 26 25 25 24 24 23 22 21 20 19 19 18 17 16 16 16 17 17 20 24 29 31 32 33 34 34 34 32 28 24 22 21 21 21 21 21 22 24 27 29 30 29 28 28 28 30
35 35 35 34 35 35 35 35 35 34 34 33 33 32 32 30 30 28 27 26 26 26 26 25 24 24 23 22 21 20 19 18 17 17 17 17 16 16 15 16 17 19 23 28 30 31 32 33 33 33 32 27 24 22 21 21 21 21 22 23 25 27 28 29 30 30 29 29 31
35 35 35 35 34 34 34 33 33 32 32 32 31 30 30 28 28 27 26 24 24 24 24 23 23 22 21 20 18 18 18 17 17 16 16 16 16 17 17 16 17 19 22 27 29 31 31 32 33 33 32 29 24 22 22 21 21 21 22 24 26 27 27 28 29 29 28 27 30
35 35 35 34 34 33 33 32 31 31 30 30 29 29 28 27 26 27 26 23 21 21 21 21 21 20 19 18 17 16 17 17 16 16 16 16 16 19 21 17 17 18 21 25 28 30 31 32 32 33 32 29 25 22 22 21 22 23 23 24 26 27 27 27 27 27 27 26 28
34 34 34 33 33 32 32 31 31 30 29 29 28 27 26 25 24 24 23 21 20 19 19 19 19 18 17 17 16 15 15 16 16 16 15 15 16 18 20 16 16 16 18 22 26 29 30 31 32 33 32 30 26 23 22 22 24 25 25 25 26 27 27 26 27 27 27 27 28
MSLP
1019.05 1018.97 1018.89 1018.77 1018.65 1018.57 1018.45 1018.33 1018.25 1018.17 1018.05 1017.93 1017.89 1017.81 1017.77 1017.77 1017.77 1017.69 1017.61 1017.49 1017.49 1017.45 1017.45 1017.45 1017.37 1017.33 1017.21 1017.05 1016.97 1016.93 1016.89 1016.85 1016.85 1016.85 1016.89 1016.89 1016.93 1017.01 1017.05 1017.17 1017.25 1017.33 1017.41 1017.49 1017.53 1017.61 1017.65 1017.69 1017.77 1017.93 1018.09 1018.25 1018.37 1018.49 1018.61 1018.69 1018.77 1018.85 1018.93 1018.97 1019.05 1019.09 1019.21 1019.25 1019.33 1019.41 1019.45 1019.49 1019.53
1019.05 1018.93 1018.85 1018.77 1018.65 1018.57 1018.49 1018.37 1018.33 1018.25 1018.17 1018.05 1017.93 1017.89 1017.81 1017.81 1017.77 1017.73 1017.65 1017.61 1017.57 1017.57 1017.53 1017.53 1017.49 1017.41 1017.33 1017.21 1017.09 1017.05 1017.01 1016.97 1017.01 1017.05 1017.09 1017.17 1017.21 1017.25 1017.29 1017.33 1017.41 1017.45 1017.49 1017.57 1017.61 1017.65 1017.73 1017.77 1017.89 1018.05 1018.21 1018.37 1018.49 1018.61 1018.69 1018.77 1018.89 1018.93 1019.01 1019.05 1019.17 1019.25 1019.29 1019.33 1019.37 1019.41 1019.41 1019.45 1019.45
1019.05 1018.93 1018.85 1018.73 1018.65 1018.61 1018.53 1018.49 1018.41 1018.37 1018.21 1018.09 1018.01 1017.93 1017.81 1017.81 1017.77 1017.77 1017.73 1017.73 1017.73 1017.69 1017.65 1017.65 1017.61 1017.53 1017.41 1017.29 1017.21 1017.17 1017.13 1017.13 1017.13 1017.17 1017.21 1017.29 1017.33 1017.37 1017.41 1017.45 1017.49 1017.57 1017.61 1017.61 1017.65 1017.69 1017.77 1017.89 1018.01 1018.13 1018.29 1018.45 1018.57 1018.69 1018.77 1018.89 1018.89 1018.97 1019.05 1019.13 1019.21 1019.21 1019.25 1019.25 1019.25 1019.25 1019.29 1019.33 1019.33
1019.05 1018.93 1018.85 1018.77 1018.69 1018.69 1018.65 1018.61 1018.49 1018.41 1018.29 1018.13 1018.05 1017.93 1017.85 1017.81 1017.81 1017.81 1017.81 1017.85 1017.81 1017.81 1017.77 1017.77 1017.73 1017.61 1017.49 1017.41 1017.33 1017.33 1017.29 1017.25 1017.25 1017.25 1017.33 1017.41 1017.41 1017.49 1017.49 1017.57 1017.61 1017.65 1017.73 1017.73 1017.77 1017.81 1017.89 1017.93 1018.05 1018.21 1018.37 1018.53 1018.65 1018.77 1018.81 1018.89 1018.93 1018.97 1019.01 1019.05 1019.13 1019.13 1019.13 1019.17 1019.13 1019.13 1019.17 1019.17 1019.21
1019.05 1018.93 1018.85 1018.77 1018.73 1018.69 1018.65 1018.65 1018.57 1018.45 1018.29 1018.13 1018.05 1017.93 1017.93 1017.93 1017.89 1017.89 1017.89 1017.89 1017.89 1017.93 1017.93 1017.89 1017.77 1017.69 1017.61 1017.53 1017.49 1017.45 1017.41 1017.41 1017.37 1017.41 1017.45 1017.49 1017.49 1017.57 1017.61 1017.65 1017.69 1017.77 1017.85 1017.89 1017.93 1017.93 1017.97 1018.01 1018.09 1018.21 1018.37 1018.49 1018.61 1018.69 1018.77 1018.81 1018.85 1018.93 1018.93 1019.01 1019.01 1019.01 1019.05 1019.05 1019.01 1019.01 1019.01 1019.05 1019.01
1019.01 1018.93 1018.85 1018.77 1018.73 1018.69 1018.65 1018.65 1018.53 1018.41 1018.25 1018.09 1018.01 1018.01 1018.01 1017.97 1017.97 1017.97 1017.97 1018.01 1018.05 1018.01 1017.97 1017.93 1017.85 1017.77 1017.77 1017.69 1017.65 1017.61 1017.61 1017.57 1017.49 1017.49 1017.49 1017.57 1017.61 1017.61 1017.65 1017.69 1017.77 1017.85 1017.93 1018.01 1018.05 1018.05 1018.05 1018.05 1018.09 1018.21 1018.33 1018.41 1018.53 1018.61 1018.65 1018.73 1018.77 1018.81 1018.85 1018.85 1018.81 1018.81 1018.85 1018.85 1018.77 1018.77 1018.81 1018.85 1018.81
1019.01 1018.93 1018.81 1018.77 1018.73 1018.69 1018.65 1018.57 1018.49 1018.37 1018.21 1018.05 1018.05 1018.05 1018.09 1018.05 1018.05 1018.05 1018.09 1018.09 1018.09 1018.05 1018.01 1017.97 1017.93 1017.89 1017.89 1017.81 1017.77 1017.69 1017.65 1017.65 1017.57 1017.53 1017.53 1017.57 1017.61 1017.61 1017.65 1017.69 1017.73 1017.81 1017.93 1018.01 1018.01 1018.01 1018.01 1018.01 1018.05 1018.13 1018.21 1018.33 1018.37 1018.41 1018.45 1018.49 1018.53 1018.61 1018.65 1018.61 1018.57 1018.53 1018.53 1018.53 1018.49 1018.53 1018.53 1018.53 1018.57
1018.93 1018.89 1018.81 1018.77 1018.69 1018.65 1018.61 1018.49 1018.37 1018.25 1018.17 1018.09 1018.09 1018.09 1018.09 1018.09 1018.09 1018.09 1018.13 1018.09 1018.13 1018.09 1018.05 1018.01 1017.97 1017.93 1017.93 1017.89 1017.81 1017.77 1017.73 1017.69 1017.65 1017.61 1017.57 1017.57 1017.57 1017.57 1017.61 1017.65 1017.65 1017.73 1017.81 1017.89 1017.93 1017.93 1017.93 1017.93 1017.97 1018.05 1018.09 1018.13 1018.21 1018.21 1018.21 1018.21 1018.25 1018.33 1018.33 1018.33 1018.29 1018.25 1018.21 1018.21 1018.21 1018.25 1018.33 1018.33 1018.37
1018.85 1018.77 1018.77 1018.73 1018.65 1018.57 1018.49 1018.37 1018.21 1018.17 1018.13 1018.13 1018.13 1018.09 1018.09 1018.09 1018.09 1018.09 1018.13 1018.13 1018.17 1018.17 1018.13 1018.05 1018.01 1018.01 1017.93 1017.89 1017.81 1017.77 1017.73 1017.69 1017.65 1017.65 1017.61 1017.57 1017.57 1017.57 1017.57 1017.61 1017.65 1017.65 1017.73 1017.77 1017.77 1017.77 1017.77 1017.81 1017.85 1017.89 1017.89 1017.93 1017.93 1017.93 1017.93 1017.93 1018.05 1018.13 1018.17 1018.17 1018.17 1018.13 1018.13 1018.17 1018.21 1018.21 1018.25 1018.29 1018.37
1018.77 1018.73 1018.69 1018.65 1018.53 1018.45 1018.37 1018.29 1018.21 1018.09 1018.09 1018.09 1018.09 1018.09 1018.05 1018.05 1018.05 1018.05 1018.09 1018.21 1018.21 1018.21 1018.17 1018.09 1018.05 1018.01 1017.97 1017.93 1017.81 1017.77 1017.73 1017.69 1017.65 1017.65 1017.61 1017.53 1017.49 1017.49 1017.49 1017.49 1017.49 1017.53 1017.57 1017.57 1017.57 1017.65 1017.69 1017.73 1017.73 1017.73 1017.73 1017.77 1017.77 1017.77 1017.81 1017.85 1017.97 1018.05 1018.05 1018.05 1018.05 1018.05 1018.09 1018.13 1018.17 1018.21 1018.21 1018.21 1018.21
1018.69 1018.65 1018.65 1018.53 1018.41 1018.33 1018.29 1018.21 1018.17 1018.13 1018.09 1018.09 1018.09 1018.05 1018.05 1018.05 1018.05 1018.05 1018.09 1018.17 1018.21 1018.21 1018.17 1018.13 1018.05 1018.01 1017.93 1017.89 1017.77 1017.69 1017.65 1017.61 1017.57 1017.53 1017.49 1017.45 1017.37 1017.33 1017.29 1017.29 1017.29 1017.33 1017.33 1017.33 1017.41 1017.49 1017.61 1017.69 1017.69 1017.69 1017.69 1017.73 1017.73 1017.77 1017.77 1017.81 1017.89 1017.93 1017.97 1017.97 1017.97 1018.05 1018.05 1018.05 1018.05 1018.05 1018.01 1018.05 1018.05
1018.65 1018.57 1018.49 1018.41 1018.33 1018.21 1018.21 1018.21 1018.17 1018.13 1018.09 1018.05 1018.05 1018.09 1018.05 1018.05 1018.05 1018.05 1018.09 1018.13 1018.17 1018.17 1018.13 1018.09 1018.05 1018.01 1017.93 1017.85 1017.77 1017.65 1017.61 1017.53 1017.49 1017.49 1017.45 1017.37 1017.33 1017.29 1017.25 1017.21 1017.21 1017.25 1017.25 1017.33 1017.41 1017.49 1017.57 1017.65 1017.69 1017.69 1017.69 1017.69 1017.65 1017.69 1017.73 1017.77 1017.85 1017.89 1017.93 1017.93 1017.97 1017.97 1017.97 1017.93 1017.89 1017.85 1017.85 1017.89 1017.93
1018.57 1018.49 1018.37 1018.29 1018.21 1018.13 1018.09 1018.13 1018.13 1018.13 1018.13 1018.09 1018.09 1018.09 1018.05 1018.05 1018.05 1018.01 1018.05 1018.05 1018.05 1018.05 1018.05 1018.05 1018.05 1018.05 1017.97 1017.89 1017.77 1017.69 1017.61 1017.53 1017.49 1017.49 1017.49 1017.45 1017.41 1017.41 1017.37 1017.33 1017.33 1017.33 1017.33 1017.33 1017.37 1017.45 1017.49 1017.57 1017.61 1017.65 1017.65 1017.65 1017.61 1017.61 1017.65 1017.73 1017.77 1017.77 1017.81 1017.85 1017.85 1017.89 1017.89 1017.81 1017.77 1017.77 1017.81 1017.81 1017.85
1018.49 1018.37 1018.21 1018.13 1018.09 1018.05 1018.05 1018.05 1018.05 1018.05 1018.05 1018.09 1018.13 1018.09 1018.05 1018.01 1017.97 1017.97 1017.97 1017.97 1018.01 1018.01 1018.01 1018.01 1018.01 1018.01 1017.97 1017.93 1017.89 1017.77 1017.73 1017.65 1017.65 1017.61 1017.61 1017.57 1017.57 1017.53 1017.49 1017.41 1017.37 1017.33 1017.33 1017.29 1017.33 1017.33 1017.37 1017.45 1017.45 1017.49 1017.57 1017.53 1017.53 1017.53 1017.57 1017.61 1017.65 1017.65 1017.69 1017.73 1017.77 1017.77 1017.77 1017.73 1017.69 1017.73 1017.77 1017.77 1017.77
1018.37 1018.21 1018.09 1018.01 1017.93 1017.93 1017.97 1017.97 1017.97 1017.93 1017.97 1018.01 1018.05 1018.01 1017.97 1017.93 1017.93 1017.89 1017.89 1017.93 1017.93 1017.93 1017.93 1017.93 1017.93 1017.93 1017.93 1017.93 1017.93 1017.89 1017.85 1017.81 1017.77 1017.73 1017.69 1017.65 1017.57 1017.53 1017.49 1017.45 1017.37 1017.33 1017.29 1017.25 1017.25 1017.29 1017.29 1017.33 1017.33 1017.41 1017.45 1017.49 1017.49 1017.49 1017.49 1017.49 1017.49 1017.53 1017.53 1017.57 1017.61 1017.65 1017.65 1017.65 1017.65 1017.65 1017.65 1017.65 1017.65
1018.21 1018.05 1017.97 1017.85 1017.77 1017.77 1017.81 1017.85 1017.81 1017.81 1017.85 1017.85 1017.89 1017.85 1017.85 1017.81 1017.77 1017.81 1017.85 1017.85 1017.81 1017.85 1017.89 1017.93 1017.93 1017.89 1017.89 1017.89 1017.89 1017.89 1017.85 1017.81 1017.77 1017.77 1017.73 1017.65 1017.61 1017.53 1017.49 1017.45 1017.37 1017.33 1017.25 1017.25 1017.21 1017.21 1017.21 1017.25 1017.29 1017.33 1017.33 1017.37 1017.37 1017.37 1017.37 1017.41 1017.41 1017.41 1017.45 1017.45 1017.49 1017.49 1017.49 1017.49 1017.53 1017.53 1017.53 1017.49 1017.49
1018.09 1017.97 1017.85 1017.73 1017.65 1017.65 1017.65 1017.65 1017.65 1017.65 1017.65 1017.65 1017.69 1017.73 1017.73 1017.69 1017.73 1017.77 1017.77 1017.77 1017.77 1017.81 1017.81 1017.81 1017.85 1017.89 1017.89 1017.89 1017.85 1017.85 1017.85 1017.81 1017.77 1017.77 1017.73 1017.65 1017.61 1017.57 1017.49 1017.45 1017.33 1017.29 1017.21 1017.21 1017.21 1017.21 1017.21 1017.21 1017.25 1017.25 1017.29 1017.33 1017.33 1017.33 1017.33 1017.33 1017.33 1017.37 1017.37 1017.33 1017.37 1017.37 1017.37 1017.33 1017.37 1017.37 1017.33 1017.37 1017.33
1018.05 1017.93 1017.77 1017.65 1017.53 1017.49 1017.49 1017.49 1017.49 1017.49 1017.49 1017.49 1017.53 1017.57 1017.61 1017.65 1017.65 1017.65 1017.65 1017.65 1017.69 1017.77 1017.77 1017.77 1017.77 1017.85 1017.89 1017.85 1017.85 1017.81 1017.81 1017.77 1017.77 1017.77 1017.73 1017.65 1017.61 1017.57 1017.49 1017.41 1017.33 1017.29 1017.25 1017.21 1017.21 1017.21 1017.21 1017.17 1017.17 1017.21 1017.21 1017.25 1017.29 1017.29 1017.29 1017.29 1017.29 1017.29 1017.29 1017.25 1017.25 1017.25 1017.21 1017.21 1017.21 1017.21 1017.21 1017.21 1017.13
1018.01 1017.89 1017.77 1017.61 1017.45 1017.33 1017.29 1017.29 1017.25 1017.25 1017.25 1017.33 1017.37 1017.45 1017.49 1017.57 1017.61 1017.65 1017.61 1017.61 1017.61 1017.65 1017.69 1017.77 1017.77 1017.81 1017.81 1017.81 1017.77 1017.77 1017.77 1017.77 1017.73 1017.73 1017.65 1017.65 1017.61 1017.53 1017.49 1017.41 1017.33 1017.33 1017.29 1017.21 1017.21 1017.21 1017.17 1017.17 1017.13 1017.17 1017.21 1017.21 1017.21 1017.21 1017.21 1017.21 1017.21 1017.21 1017.21 1017.17 1017.17 1017.13 1017.09 1017.05 1017.05 1017.05 1017.05 1016.97 1016.93
1018.01 1017.89 1017.73 1017.53 1017.37 1017.25 1017.21 1017.17 1017.13 1017.13 1017.21 1017.25 1017.33 1017.41 1017.49 1017.53 1017.61 1017.61 1017.61 1017.53 1017.53 1017.61 1017.65 1017.73 1017.77 1017.77 1017.73 1017.73 1017.73 1017.69 1017.69 1017.69 1017.69 1017.65 1017.65 1017.61 1017.57 1017.53 1017.49 1017.41 1017.33 1017.29 1017.25 1017.21 1017.17 1017.13 1017.13 1017.13 1017.09 1017.09 1017.13 1017.17 1017.13 1017.13 1017.13 1017.17 1017.17 1017.13 1017.09 1017.05 1017.05 1016.97 1016.93 1016.93 1016.89 1016.89 1016.85 1016.81 1016.81
1018.01 1017.85 1017.69 1017.57 1017.49 1017.41 1017.33 1017.33 1017.33 1017.33 1017.33 1017.37 1017.41 1017.45 1017.49 1017.49 1017.57 1017.57 1017.57 1017.53 1017.57 1017.65 1017.69 1017.69 1017.73 1017.73 1017.73 1017.69 1017.65 1017.65 1017.61 1017.65 1017.65 1017.65 1017.61 1017.57 1017.53 1017.49 1017.41 1017.37 1017.33 1017.25 1017.21 1017.17 1017.13 1017.09 1017.09 1017.09 1017.05 1017.05 1017.05 1017.05 1017.05 1017.09 1017.05 1017.05 1017.05 1017.05 1017.05 1016.97 1016.93 1016.89 1016.81 1016.81 1016.77 1016.77 1016.77 1016.73 1016.69
1017.93 1017.81 1017.73 1017.65 1017.65 1017.65 1017.61 1017.61 1017.61 1017.61 1017.57 1017.57 1017.53 1017.49 1017.49 1017.49 1017.53 1017.53 1017.57 1017.61 1017.65 1017.69 1017.69 1017.69 1017.77 1017.73 1017.65 1017.65 1017.61 1017.57 1017.57 1017.53 1017.57 1017.57 1017.57 1017.53 1017.49 1017.41 1017.37 1017.33 1017.33 1017.29 1017.21 1017.17 1017.13 1017.09 1017.05 1017.05 1017.05 1017.05 1017.05 1017.05 1017.05 1017.05 1017.05 1017.05 1017.05 1017.01 1016.97 1016.93 1016.89 1016.81 1016.77 1016.73 1016.69 1016.65 1016.65 1016.65 1016.57
1017.93 1017.85 1017.85 1017.85 1017.81 1017.81 1017.77 1017.77 1017.77 1017.77 1017.77 1017.73 1017.65 1017.57 1017.53 1017.53 1017.53 1017.57 1017.61 1017.65 1017.69 1017.73 1017.77 1017.77 1017.77 1017.73 1017.65 1017.53 1017.49 1017.53 1017.57 1017.57 1017.53 1017.53 1017.49 1017.49 1017.45 1017.41 1017.37 1017.33 1017.29 1017.29 1017.21 1017.17 1017.17 1017.17 1017.13 1017.05 1017.01 1017.01 1017.01 1017.01 1017.01 1017.01 1016.97 1016.97 1016.97 1016.93 1016.93 1016.89 1016.85 1016.77 1016.73 1016.65 1016.65 1016.61 1016.57 1016.53 1016.49
1018.05 1018.01 1017.97 1017.93 1017.85 1017.85 1017.85 1017.81 1017.85 1017.89 1017.85 1017.77 1017.77 1017.69 1017.65 1017.65 1017.61 1017.65 1017.65 1017.73 1017.73 1017.77 1017.77 1017.81 1017.77 1017.73 1017.61 1017.49 1017.49 1017.49 1017.53 1017.53 1017.53 1017.49 1017.45 1017.45 1017.41 1017.37 1017.37 1017.33 1017.29 1017.25 1017.21 1017.21 1017.17 1017.13 1017.05 1017.05 1017.01 1016.93 1016.93 1016.93 1016.93 1016.93 1016.93 1016.93 1016.89 1016.89 1016.89 1016.81 1016.77 1016.73 1016.65 1016.61 1016.61 1016.57 1016.53 1016.49 1016.45
1018.13 1018.05 1017.93 1017.81 1017.85 1017.89 1017.89 1017.89 1017.93 1017.93 1017.89 1017.89 1017.85 1017.85 1017.81 1017.77 1017.69 1017.69 1017.73 1017.77 1017.77 1017.77 1017.77 1017.77 1017.77 1017.65 1017.53 1017.49 1017.45 1017.45 1017.49 1017.49 1017.53 1017.49 1017.49 1017.45 1017.41 1017.37 1017.33 1017.33 1017.25 1017.21 1017.21 1017.17 1017.05 1016.93 1016.93 1016.93 1016.85 1016.81 1016.85 1016.85 1016.85 1016.85 1016.85 1016.81 1016.81 1016.81 1016.81 1016.77 1016.73 1016.69 1016.65 1016.57 1016.49 1016.49 1016.45 1016.37 1016.33
1018.13 1018.01 1017.93 1017.85 1017.89 1017.93 1017.93 1017.93 1017.97 1018.01 1018.01 1018.05 1018.01 1018.01 1017.97 1017.93 1017.85 1017.77 1017.77 1017.77 1017.77 1017.77 1017.77 1017.77 1017.73 1017.65 1017.53 1017.49 1017.45 1017.49 1017.49 1017.45 1017.49 1017.49 1017.53 1017.53 1017.49 1017.41 1017.37 1017.33 1017.33 1017.25 1017.21 1017.09 1017.01 1016.93 1016.85 1016.77 1016.73 1016.69 1016.73 1016.77 1016.77 1016.77 1016.77 1016.77 1016.77 1016.77 1016.77 1016.77 1016.73 1016.69 1016.65 1016.57 1016.41 1016.37 1016.33 1016.25 1016.17
1018.49 1018.37 1018.29 1018.17 1018.13 1018.17 1018.21 1018.21 1018.21 1018.25 1018.29 1018.33 1018.33 1018.29 1018.21 1018.13 1018.05 1018.01 1017.97 1017.93 1017.85 1017.77 1017.77 1017.77 1017.69 1017.65 1017.57 1017.53 1017.53 1017.49 1017.45 1017.45 1017.45 1017.53 1017.61 1017.65 1017.65 1017.57 1017.49 1017.41 1017.33 1017.25 1017.21 1017.09 1016.97 1016.89 1016.77 1016.73 1016.65 1016.61 1016.65 1016.69 1016.73 1016.77 1016.77 1016.77 1016.73 1016.73 1016.73 1016.73 1016.69 1016.65 1016.61 1016.49 1016.37 1016.29 1016.17 1016.05 1015.97
1018.93 1018.93 1018.85 1018.81 1018.73 1018.73 1018.77 1018.73 1018.69 1018.69 1018.69 1018.69 1018.65 1018.57 1018.49 1018.37 1018.29 1018.21 1018.17 1018.05 1018.01 1017.93 1017.89 1017.81 1017.73 1017.65 1017.65 1017.65 1017.65 1017.57 1017.49 1017.49 1017.53 1017.61 1017.65 1017.73 1017.69 1017.65 1017.57 1017.49 1017.37 1017.25 1017.17 1017.05 1016.93 1016.85 1016.77 1016.69 1016.65 1016.57 1016.53 1016.57 1016.65 1016.69 1016.69 1016.73 1016.73 1016.69 1016.65 1016.65 1016.61 1016.53 1016.49 1016.37 1016.25 1016.17 1016.05 1015.93 1015.77
1019.21 1019.17 1019.17 1019.21 1019.21 1019.21 1019.17 1019.09 1019.05 1019.05 1019.01 1018.93 1018.85 1018.73 1018.65 1018.53 1018.45 1018.37 1018.33 1018.25 1018.21 1018.09 1018.01 1017.93 1017.85 1017.77 1017.77 1017.77 1017.77 1017.73 1017.65 1017.69 1017.77 1017.77 1017.81 1017.77 1017.77 1017.69 1017.61 1017.49 1017.37 1017.25 1017.17 1017.05 1016.93 1016.81 1016.73 1016.65 1016.53 1016.49 1016.45 1016.45 1016.61 1016.65 1016.65 1016.65 1016.65 1016.65 1016.61 1016.49 1016.45 1016.37 1016.33 1016.21 1016.09 1015.97 1015.89 1015.77 1015.65
1019.33 1019.33 1019.33 1019.33 1019.37 1019.37 1019.37 1019.33 1019.33 1019.29 1019.21 1019.05 1018.93 1018.81 1018.69 1018.65 1018.57 1018.49 1018.41 1018.37 1018.29 1018.21 1018.17 1018.09 1018.05 1018.01 1018.01 1017.97 1017.93 1017.93 1017.89 1017.89 1017.93 1017.93 1017.93 1017.89 1017.81 1017.69 1017.61 1017.49 1017.37 1017.25 1017.09 1017.01 1016.89 1016.77 1016.69 1016.61 1016.49 1016.49 1016.41 1016.37 1016.49 1016.57 1016.61 1016.61 1016.57 1016.53 1016.49 1016.37 1016.29 1016.21 1016.17 1016.05 1015.93 1015.85 1015.77 1015.65 1015.53
1019.45 1019.45 1019.45 1019.49 1019.49 1019.53 1019.53 1019.49 1019.41 1019.33 1019.21 1019.05 1018.93 1018.81 1018.73 1018.65 1018.61 1018.49 1018.45 1018.41 1018.37 1018.29 1018.21 1018.21 1018.21 1018.17 1018.13 1018.09 1018.05 1018.05 1018.01 1017.97 1017.93 1017.93 1017.93 1017.93 1017.85 1017.73 1017.65 1017.49 1017.37 1017.25 1017.09 1016.97 1016.85 1016.77 1016.65 1016.57 1016.49 1016.41 1016.37 1016.37 1016.41 1016.45 1016.49 1016.49 1016.45 1016.37 1016.33 1016.21 1016.13 1016.05 1015.97 1015.89 1015.77 1015.69 1015.61 1015.49 1015.41
1019.49 1019.49 1019.49 1019.49 1019.53 1019.53 1019.49 1019.49 1019.37 1019.29 1019.17 1019.05 1018.93 1018.81 1018.73 1018.65 1018.61 1018.49 1018.45 1018.45 1018.41 1018.37 1018.29 1018.25 1018.21 1018.21 1018.13 1018.09 1018.05 1018.05 1018.01 1017.97 1017.93 1017.93 1017.93 1017.93 1017.85 1017.77 1017.65 1017.49 1017.37 1017.25 1017.09 1016.93 1016.81 1016.69 1016.61 1016.49 1016.41 1016.37 1016.33 1016.25 1016.29 1016.33 1016.37 1016.33 1016.29 1016.21 1016.17 1016.05 1016.01 1015.93 1015.81 1015.73 1015.65 1015.49 1015.41 1015.33 1015.25
1019.49 1019.49 1019.49 1019.49 1019.49 1019.49 1019.45 1019.41 1019.33 1019.29 1019.21 1019.05 1018.97 1018.89 1018.77 1018.69 1018.61 1018.49 1018.49 1018.45 1018.45 1018.45 1018.41 1018.37 1018.33 1018.29 1018.21 1018.17 1018.13 1018.05 1018.01 1017.97 1017.97 1017.93 1017.93 1017.93 1017.89 1017.77 1017.65 1017.49 1017.33 1017.21 1017.05 1016.89 1016.77 1016.65 1016.53 1016.45 1016.37 1016.33 1016.21 1016.17 1016.21 1016.25 1016.25 1016.21 1016.17 1016.09 1016.01 1015.93 1015.81 1015.73 1015.65 1015.61 1015.49 1015.33 1015.25 1015.17 1015.05
1019.49 1019.45 1019.41 1019.41 1019.37 1019.33 1019.33 1019.33 1019.29 1019.21 1019.17 1019.05 1018.97 1018.89 1018.77 1018.69 1018.65 1018.53 1018.49 1018.49 1018.49 1018.45 1018.41 1018.37 1018.37 1018.33 1018.25 1018.21 1018.17 1018.13 1018.09 1018.01 1017.93 1017.93 1017.93 1017.93 1017.89 1017.81 1017.69 1017.49 1017.33 1017.17 1017.01 1016.85 1016.69 1016.57 1016.49 1016.37 1016.29 1016.21 1016.13 1016.05 1016.09 1016.17 1016.21 1016.09 1016.05 1015.97 1015.89 1015.77 1015.65 1015.57 1015.49 1015.37 1015.29 1015.17 1015.05 1014.93 1014.85
1019.41 1019.33 1019.33 1019.29 1019.21 1019.21 1019.17 1019.17 1019.17 1019.13 1019.05 1019.01 1018.93 1018.81 1018.77 1018.65 1018.61 1018.53 1018.53 1018.49 1018.49 1018.45 1018.37 1018.33 1018.33 1018.29 1018.25 1018.21 1018.21 1018.21 1018.17 1018.05 1018.01 1017.93 1017.93 1017.93 1017.93 1017.81 1017.69 1017.49 1017.29 1017.09 1016.97 1016.81 1016.65 1016.53 1016.41 1016.33 1016.21 1016.13 1016.05 1016.01 1016.05 1016.05 1016.05 1016.05 1015.93 1015.81 1015.73 1015.65 1015.49 1015.41 1015.29 1015.17 1015.05 1014.93 1014.81 1014.69 1014.61
1019.33 1019.33 1019.25 1019.21 1019.17 1019.09 1019.05 1019.05 1019.05 1019.01 1018.97 1018.93 1018.93 1018.81 1018.77 1018.65 1018.61 1018.53 1018.53 1018.53 1018.49 1018.45 1018.41 1018.37 1018.37 1018.37 1018.33 1018.29 1018.25 1018.21 1018.21 1018.13 1018.05 1017.97 1017.93 1017.93 1017.93 1017.85 1017.69 1017.49 1017.29 1017.09 1016.93 1016.77 1016.65 1016.49 1016.37 1016.25 1016.17 1016.05 1015.97 1015.93 1015.97 1015.97 1015.93 1015.89 1015.77 1015.69 1015.57 1015.49 1015.37 1015.21 1015.05 1014.93 1014.77 1014.69 1014.57 1014.49 1014.37
1019.33 1019.29 1019.25 1019.21 1019.21 1019.13 1019.09 1019.09 1019.05 1019.05 1019.01 1018.97 1018.93 1018.93 1018.85 1018.77 1018.69 1018.65 1018.65 1018.65 1018.61 1018.57 1018.53 1018.49 1018.49 1018.45 1018.41 1018.37 1018.33 1018.21 1018.17 1018.13 1018.09 1018.05 1017.93 1017.89 1017.89 1017.81 1017.69 1017.53 1017.33 1017.13 1016.93 1016.77 1016.65 1016.49 1016.37 1016.21 1016.09 1015.97 1015.93 1015.85 1015.85 1015.81 1015.77 1015.73 1015.61 1015.49 1015.41 1015.33 1015.21 1015.01 1014.81 1014.69 1014.61 1014.49 1014.37 1014.29 1014.17
1019.33 1019.33 1019.33 1019.33 1019.25 1019.21 1019.21 1019.21 1019.17 1019.13 1019.13 1019.09 1019.05 1018.97 1018.93 1018.89 1018.81 1018.77 1018.73 1018.73 1018.73 1018.69 1018.65 1018.61 1018.53 1018.49 1018.45 1018.41 1018.37 1018.25 1018.17 1018.13 1018.13 1018.05 1017.97 1017.85 1017.81 1017.77 1017.73 1017.57 1017.33 1017.13 1016.97 1016.77 1016.61 1016.45 1016.29 1016.13 1016.01 1015.93 1015.81 1015.81 1015.77 1015.69 1015.65 1015.53 1015.45 1015.33 1015.21 1015.09 1014.97 1014.81 1014.69 1014.57 1014.45 1014.29 1014.17 1014.05 1013.93
1019.33 1019.33 1019.33 1019.33 1019.33 1019.33 1019.29 1019.29 1019.25 1019.21 1019.21 1019.17 1019.09 1019.05 1018.97 1018.93 1018.89 1018.77 1018.77 1018.77 1018.77 1018.77 1018.73 1018.69 1018.65 1018.53 1018.49 1018.45 1018.41 1018.29 1018.13 1018.05 1018.05 1018.05 1017.93 1017.85 1017.77 1017.73 1017.65 1017.53 1017.33 1017.13 1016.93 1016.73 1016.57 1016.41 1016.25 1016.09 1015.93 1015.81 1015.73 1015.65 1015.65 1015.57 1015.49 1015.41 1015.33 1015.21 1015.05 1014.93 1014.81 1014.65 1014.53 1014.45 1014.29 1014.17 1014.01 1013.89 1013.69
1019.37 1019.37 1019.37 1019.37 1019.37 1019.37 1019.33 1019.33 1019.29 1019.25 1019.25 1019.21 1019.13 1019.09 1019.05 1018.97 1018.93 1018.81 1018.77 1018.81 1018.85 1018.81 1018.77 1018.77 1018.65 1018.57 1018.49 1018.49 1018.45 1018.33 1018.17 1018.01 1017.97 1017.93 1017.93 1017.81 1017.73 1017.61 1017.49 1017.45 1017.33 1017.13 1016.93 1016.69 1016.49 1016.37 1016.21 1016.05 1015.89 1015.73 1015.61 1015.53 1015.49 1015.41 1015.33 1015.29 1015.17 1015.05 1014.93 1014.81 1014.65 1014.49 1014.37 1014.21 1014.09 1013.97 1013.85 1013.65 1013.49
1019.33 1019.37 1019.41 1019.37 1019.37 1019.37 1019.37 1019.33 1019.29 1019.25 1019.21 1019.21 1019.17 1019.13 1019.09 1019.01 1018.93 1018.89 1018.85 1018.85 1018.81 1018.81 1018.77 1018.69 1018.65 1018.57 1018.53 1018.49 1018.41 1018.37 1018.21 1018.05 1017.93 1017.85 1017.81 1017.77 1017.65 1017.49 1017.45 1017.41 1017.29 1017.09 1016.89 1016.65 1016.49 1016.29 1016.09 1015.93 1015.77 1015.65 1015.49 1015.41 1015.33 1015.25 1015.21 1015.17 1015.05 1014.89 1014.77 1014.65 1014.49 1014.37 1014.21 1014.01 1013.85 1013.73 1013.57 1013.37 1013.21
Wind_Speed
3 3 3 3 3 3 3 2 2 2 2 2 1 1 1 1 1 1 2 2 2 3 3 3 3 3 4 6 7 8 8 9 9 10 10 10 9 9 9 9 8 8 7 7 7 6 6 6 6 5 4 4 4 4 4 3 3 4 4 3 3 2 2 1 1 2 2 3 3
4 4 3 3 3 2 2 2 2 2 2 1 1 1 1 0 1 2 3 3 3 3 3 3 3 3 4 5 6 6 7 8 9 9 9 9 8 8 7 7 7 7 7 7 6 6 5 6 6 5 4 4 4 4 4 3 3 3 3 3 2 1 1 1 2 3 4 4 4
4 4 3 3 3 2 2 2 2 2 2 2 1 0 0 1 2 3 3 3 3 3 3 2 2 3 4 5 5 5 6 7 7 7 7 6 6 6 6 6 6 6 6 6 6 6 6 6 5 5 4 4 3 3 3 2 2 2 1 1 1 1 2 2 3 3 3 3 4
3 3 3 3 3 2 2 2 2 2 2 2 1 1 2 2 2 3 3 3 3 2 2 1 2 2 3 4 5 5 5 5 6 6 6 5 5 5 6 6 6 6 6 6 6 6 6 6 5 4 4 4 3 2 1 0 0 1 1 2 2 2 2 2 3 3 3 3 3
3 3 2 2 2 2 2 2 2 2 2 1 1 2 2 3 3 3 3 3 2 2 1 1 2 2 3 4 5 5 4 4 5 5 5 5 5 5 5 6 6 5 5 5 5 5 5 5 4 4 3 3 3 2 2 2 3 2 2 2 3 3 3 3 3 3 3 3 3
3 3 3 3 3 3 3 2 2 2 1 0 2 3 3 2 2 2 3 2 1 1 1 1 2 2 3 3 4 4 3 3 3 4 4 5 5 5 5 6 6 5 4 4 4 5 4 4 3 3 3 3 3 3 4 5 4 4 4 4 4 4 4 4 4 4 4 5 5
3 3 3 3 3 3 2 2 2 1 0 2 4 4 4 2 2 2 2 1 1 0 1 1 2 2 2 2 3 3 3 3 3 4 4 4 5 5 5 5 5 5 4 4 4 4 4 4 3 2 3 3 3 4 6 6 6 6 6 6 5 5 5 6 5 5 6 7 8
3 3 3 3 3 2 2 2 1 1 2 3 4 4 3 3 3 2 2 1 1 0 0 1 1 1 1 2 2 2 3 3 3 3 4 4 5 5 5 5 5 5 4 4 4 4 4 3 3 3 3 3 3 5 6 8 7 7 7 7 6 5 5 5 5 5 5 7 7
3 3 3 3 3 2 1 1 2 2 3 3 3 3 3 3 3 3 2 2 1 0 0 0 1 1 1 2 2 3 3 3 4 4 4 4 4 4 4 4 4 4 4 4 5 5 5 3 3 3 3 4 4 4 5 7 7 7 7 6 5 4 3 3 3 3 4 5 5
3 3 3 3 2 2 1 1 2 2 3 4 3 3 2 2 3 3 2 1 1 0 0 1 1 2 2 3 3 3 4 4 4 4 4 4 5 5 5 4 5 5 5 5 5 5 5 4 3 4 4 4 4 4 4 4 5 5 5 4 4 3 3 3 3 3 4 4 5
3 3 3 3 2 2 2 2 1 2 2 3 3 3 2 3 3 2 2 1 1 1 1 2 2 2 3 3 4 4 4 4 4 4 5 5 5 5 5 5 5 5 5 5 4 3 3 3 3 4 4 4 4 4 4 4 4 4 5 3 3 3 3 3 4 4 4 4 5
4 3 3 3 2 1 2 1 1 1 2 3 3 3 2 3 3 2 2 2 2 2 2 3 3 3 3 3 4 4 4 4 4 4 4 5 4 4 4 4 4 4 3 3 2 2 2 3 3 4 5 5 4 4 4 4 4 4 4 3 3 3 3 4 4 3 3 3 4
4 3 2 2 1 1 1 1 1 1 2 2 2 2 2 2 3 3 3 3 3 3 3 3 3 3 3 3 3 3 3 3 3 3 2 2 2 2 2 2 2 2 2 2 2 2 3 4 4 5 6 6 5 4 4 4 4 4 4 4 3 3 4 5 4 4 3 3 4
3 3 2 1 1 1 1 1 1 2 2 2 2 2 2 2 2 2 3 3 3 3 3 3 3 3 3 3 3 3 2 2 1 1 2 2 2 2 2 2 3 3 3 3 3 3 4 4 5 5 6 6 5 4 4 4 4 4 4 4 4 4 5 5 5 4 4 4 4
3 2 2 1 1 1 1 1 2 2 2 3 3 3 3 3 3 3 3 3 4 3 3 3 3 3 3 3 3 2 2 2 2 2 2 3 3 3 3 4 4 4 4 4 3 4 4 5 5 5 5 5 5 4 4 4 4 4 4 4 4 5 5 5 5 5 5 5 5
3 2 1 1 2 2 2 2 2 2 3 3 3 3 3 3 3 3 3 3 3 3 3 3 4 3 3 2 2 2 2 2 2 2 3 4 4 4 4 4 4 4 4 3 3 3 3 4 4 4 4 4 4 4 3 3 3 3 4 4 5 5 5 6 6 6 6 6 6
3 3 2 2 3 3 3 3 3 3 4 4 4 4 4 3 3 3 3 3 3 3 3 4 3 2 2 2 2 1 2 2 3 3 4 5 5 5 4 4 4 4 3 3 3 3 3 3 2 3 3 3 3 3 3 3 3 3 4 4 5 5 6 6 6 6 6 7 7
4 3 3 3 4 5 5 5 5 5 5 5 5 4 4 3 3 3 3 4 3 3 4 3 2 1 2 3 2 2 2 2 3 4 4 5 5 4 4 5 4 3 3 2 2 2 3 3 2 2 1 2 2 2 3 3 3 4 4 5 5 6 6 6 6 6 6 7 7
4 4 4 5 6 6 7 7 6 6 5 5 4 4 3 3 3 3 4 4 3 3 3 2 2 2 2 3 3 3 2 2 3 4 5 4 4 4 4 4 4 3 2 2 2 2 2 3 2 2 2 2 2 2 3 3 4 4 5 5 5 6 6 6 6 6 6 7 7
5 5 5 5 6 6 6 6 5 5 4 3 3 3 3 3 3 4 4 4 2 2 1 1 2 2 3 3 3 3 3 2 3 4 4 4 4 4 4 4 3 3 2 2 2 2 2 2 2 2 2 2 3 3 3 3 4 4 5 5 5 6 6 6 6 6 6 6 7
6 6 6 5 4 4 4 3 2 2 2 2 2 2 3 3 3 4 4 2 1 1 1 1 2 3 3 4 4 4 3 2 3 3 4 4 4 4 4 3 2 2 2 2 2 2 2 2 2 2 2 2 3 3 4 4 4 4 5 5 5 6 6 6 6 6 6 6 6
6 6 5 4 3 2 1 0 1 1 0 0 1 2 2 3 3 3 2 1 0 0 1 1 2 3 4 4 4 4 3 2 3 3 4 4 4 3 2 2 2 2 2 2 2 2 2 3 3 2 2 2 3 3 4 4 4 5 5 5 6 6 6 6 5 5 6 6 6
5 4 3 1 1 1 2 2 2 1 0 1 1 2 2 3 2 2 1 1 1 1 1 2 3 4 4 4 4 3 3 3 3 3 3 3 3 2 2 1 1 2 2 2 2 2 2 3 3 2 2 2 3 4 4 4 4 5 5 6 6 6 6 5 5 5 5 5 5
3 2 1 1 1 2 2 2 1 1 0 1 2 2 2 3 3 2 2 2 2 2 2 3 3 4 4 3 3 3 3 3 3 3 3 2 2 2 1 1 1 2 2 2 3 3 3 2 3 3 3 2 3 3 4 4 4 4 5 5 6 6 6 5 5 5 5 5 5
2 1 1 1 1 1 1 1 1 1 1 2 3 3 4 4 4 4 4 4 4 4 4 4 4 4 3 2 2 2 3 3 3 3 3 3 3 3 3 2 2 2 2 3 5 6 6 5 4 3 3 2 3 3 3 4 4 4 4 5 5 5 5 6 6 5 5 6 6
3 2 1 1 1 1 1 1 2 2 3 4 4 5 5 5 4 4 4 4 4 4 4 5 5 4 3 2 2 2 2 2 1 2 3 4 4 4 4 3 3 3 3 4 7 8 9 9 8 6 4 2 3 3 3 3 3 3 3 4 4 4 5 6 6 6 6 6 6
6 6 5 4 3 3 4 5 5 5 6 7 7 7 7 6 5 4 4 4 4 4 4 4 4 3 3 2 2 2 2 2 3 3 3 3 4 4 4 4 4 3 4 6 8 9 10 10 10 9 6 3 2 2 3 3 3 3 3 3 4 4 5 6 7 7 7 7 7
9 10 10 10 9 9 9 9 9 9 9 9 8 7 7 6 6 5 5 5 5 5 5 4 4 3 2 2 3 3 4 4 4 4 3 3 3 4 4 4 4 4 6 8 9 10 10 10 10 10 8 3 1 2 2 2 3 3 3 3 4 5 6 6 6 7 7 8 8
10 10 10 11 11 11 10 10 10 9 9 8 7 7 6 6 6 6 6 6 6 6 5 4 4 3 3 4 5 5 5 5 4 3 3 3 4 4 4 4 5 6 7 9 10 10 10 10 9 9 8 5 1 1 2 2 2 3 3 4 4 5 6 6 6 7 7 8 8
9 9 9 10 10 9 9 9 8 8 7 6 6 7 7 7 7 7 8 8 8 7 6 5 5 5 5 5 5 5 5 4 4 3 3 4 4 4 5 5 5 6 8 10 10 10 10 9 8 7 7 6 2 1 2 2 2 3 4 5 5 6 7 7 7 7 8 8 8
8 8 9 9 9 8 8 7 6 6 6 6 6 7 7 7 7 7 7 7 7 7 6 5 5 5 5 5 4 4 4 4 4 4 4 4 4 5 5 6 6 7 8 10 10 9 9 8 7 7 7 7 4 2 2 3 3 3 4 5 6 6 7 7 7 8 8 8 8
7 8 8 8 7 7 6 6 6 6 6 6 6 6 6 6 6 5 6 6 6 6 5 5 5 5 5 5 4 4 4 5 5 5 4 4 4 5 5 6 6 7 8 10 9 9 8 7 7 7 8 8 6 4 3 3 3 4 5 6 7 7 7 7 7 8 8 9 8
7 7 7 6 6 6 6 6 6 6 6 6 6 6 5 5 5 5 4 4 4 4 4 4 5 5 5 5 5 5 5 5 5 5 5 4 4 4 5 6 6 7 8 9 9 8 7 7 7 8 9 10 7 4 3 3 3 4 5 6 6 7 8 8 8 8 8 9 8
5 5 5 4 4 5 5 5 6 6 6 6 6 5 5 4 4 4 3 3 2 2 2 2 2 3 3 3 3 4 5 5 5 5 5 4 4 4 5 5 5 6 8 9 9 8 8 8 8 9 10 10 7 4 3 4 4 5 6 6 7 7 7 8 8 8 9 9 8
3 3 3 3 3 4 4 4 5 5 5 5 5 5 4 4 3 3 2 2 2 2 2 2 2 2 2 2 2 3 3 4 5 5 5 4 4 4 5 5 5 7 9 9 9 9 8 9 10 11 11 9 6 4 4 4 5 5 6 7 7 7 8 8 8 8 8 8 8
2 2 2 3 3 3 4 4 4 4 4 5 5 4 4 4 3 2 2 1 2 2 2 2 2 2 2 3 2 2 3 4 5 6 5 4 4 4 4 5 6 7 9 10 10 10 10 10 11 12 12 8 5 4 4 4 5 5 6 7 7 8 8 8 8 8 7 7 8
3 3 3 3 4 4 4 4 4 4 4 5 4 4 4 4 3 2 2 1 2 2 3 3 3 3 3 3 3 3 3 3 4 5 6 5 3 3 4 5 6 8 9 11 11 11 12 12 13 13 11 7 5 4 4 4 4 5 6 6 7 8 8 8 8 7 7 7 9
3 3 3 3 4 4 4 4 4 5 5 5 4 4 3 3 3 2 2 1 2 2 3 3 3 3 3 3 4 5 5 4 3 4 4 4 3 3 4 5 6 7 9 11 12 13 13 13 14 14 12 7 5 5 5 4 4 5 5 6 7 7 8 7 7 7 8 9 11
3 3 3 4 4 4 4 4 4 4 4 4 4 3 3 3 2 2 2 1 1 2 3 3 4 4 4 4 4 5 5 5 3 3 3 4 4 4 4 4 5 7 9 11 13 14 14 14 15 15 13 8 6 5 4 4 5 5 5 5 6 7 7 7 7 7 8 9 13
3 3 3 3 3 3 4 4 4 3 3 3 3 3 3 3 3 2 2 1 1 2 2 3 4 5 4 4 4 4 5 5 4 3 3 4 5 5 5 4 5 7 9 11 13 14 14 15 15 16 14 9 6 4 4 4 5 5 5 5 6 7 7 7 7 7 7 8 11
2 2 3 3 3 3 3 3 3 3 3 3 3 3 2 3 2 2 2 2 2 2 2 3 4 5 4 4 3 4 5 6 5 4 4 4 5 5 5 4 5 7 8 10 12 14 15 15 16 16 15 10 6 5 4 4 5 6 7 7 7 7 8 8 7 7 7 7 7
Wind_Direction
321 322 318 311 304 300 299 302 308 310 306 302 303 305 310 326 357 14 20 30 44 49 48 44 43 45 46 49 56 59 60 61 61 61 62 63 66 68 70 72 76 79 82 83 82 80 77 75 75 72 68 64 61 60 57 53 49 45 41 36 33 31 26 16 329 287 270 259 254
324 321 317 310 304 300 302 307 315 319 317 304 285 271 269 74 64 54 48 46 52 59 61 58 53 53 56 57 63 66 69 69 70 70 70 71 74 78 81 84 85 86 88 89 87 83 79 75 75 73 70 63 60 56 52 45 45 41 33 22 8 351 323 288 264 258 256 255 250
318 319 321 324 325 326 325 321 320 321 318 308 295 291 69 74 74 70 65 61 60 62 66 66 60 63 66 67 68 72 76 79 82 84 85 86 87 89 91 93 92 91 90 91 89 88 86 84 83 82 79 73 65 59 52 43 46 41 22 306 264 244 239 243 239 238 239 242 238
315 318 322 326 325 320 310 299 301 304 302 298 308 33 62 67 74 78 78 73 65 65 67 72 69 71 73 76 75 76 79 86 91 94 96 97 96 96 96 97 94 92 91 91 93 95 97 97 96 95 95 95 91 90 93 117 198 218 229 232 232 232 238 246 247 245 244 246 239
308 306 303 298 291 282 273 267 268 274 280 281 51 65 65 65 72 78 80 76 72 70 70 80 77 74 73 78 80 80 81 84 90 96 100 100 100 99 97 96 96 96 96 98 102 106 109 109 108 111 117 123 133 153 183 201 209 215 218 223 225 226 230 236 240 240 242 243 240
294 293 290 283 277 272 266 259 252 251 252 105 81 77 73 70 72 76 81 85 85 80 68 70 73 71 71 74 80 83 84 85 91 98 103 105 105 104 104 104 106 108 111 115 119 122 124 124 124 130 140 149 165 184 197 202 208 211 215 219 220 220 221 223 227 228 228 229 230
270 277 281 281 275 268 259 252 244 234 137 89 90 92 95 95 92 92 96 105 101 71 58 68 74 79 83 87 92 96 99 99 102 108 113 118 119 120 121 122 125 129 136 143 146 149 152 151 150 155 163 173 186 198 203 205 206 209 212 217 218 217 217 218 219 220 220 220 221
264 266 267 267 261 252 243 233 201 137 103 96 102 110 118 120 117 115 112 101 89 72 67 79 96 111 122 123 123 122 122 120 122 125 129 132 133 134 136 139 142 150 158 166 171 175 176 171 172 178 184 191 201 207 209 208 209 211 216 220 223 222 220 220 219 218 216 215 215
265 262 259 255 244 232 216 193 143 125 118 116 123 130 135 133 127 120 112 106 117 130 125 117 152 160 159 153 150 148 146 143 145 147 149 148 147 149 151 154 161 169 180 188 192 193 191 186 191 197 200 205 213 217 216 210 212 216 222 228 231 233 233 231 223 218 213 211 214
255 254 251 243 224 199 159 127 126 128 129 130 135 140 141 137 128 124 127 142 154 215 250 214 195 185 181 179 173 170 168 164 164 165 167 166 165 166 169 173 180 188 196 202 202 200 197 198 208 214 218 220 226 231 231 221 218 222 227 234 234 234 232 222 209 205 206 207 215
249 249 245 237 215 173 136 123 130 130 131 132 137 141 143 139 137 142 150 153 148 192 226 228 213 203 197 196 191 188 185 182 179 179 181 183 184 184 185 187 191 197 204 209 204 198 198 209 223 232 238 241 242 245 247 242 231 228 230 235 229 227 227 226 214 208 207 210 218
246 245 242 237 214 165 137 136 145 137 131 132 141 149 155 157 160 162 162 157 173 200 221 232 228 222 217 215 209 204 200 195 191 191 193 197 199 201 201 201 202 208 214 220 206 195 199 214 228 238 245 250 249 248 246 241 232 229 228 229 222 223 230 239 234 227 221 218 227
242 238 234 235 207 145 133 141 153 145 139 141 156 169 177 182 182 178 173 176 190 205 220 232 239 239 238 237 232 227 221 215 213 215 219 225 231 239 245 250 246 244 243 242 224 210 210 219 227 235 242 249 249 244 235 224 220 220 222 224 224 228 237 245 245 243 237 233 237
238 231 221 209 146 120 126 150 164 158 155 163 184 194 199 201 201 196 192 193 201 209 217 227 238 244 248 251 256 259 263 270 279 293 301 303 296 282 270 262 254 250 247 243 234 224 222 227 229 233 238 244 246 240 227 213 211 214 219 225 231 237 243 247 247 245 244 244 247
235 228 215 174 134 129 142 173 183 177 175 183 200 208 210 210 211 211 211 213 216 218 219 222 234 243 250 259 272 287 302 318 318 309 298 287 275 264 256 252 251 248 245 243 238 229 224 226 228 229 231 236 240 238 230 217 215 218 223 228 235 241 246 249 248 247 245 247 251
231 229 215 163 147 152 171 191 193 190 190 196 205 210 212 214 215 217 220 225 228 229 229 229 237 245 258 271 282 294 303 304 292 281 273 269 266 262 258 255 253 251 248 245 242 234 228 224 222 221 223 229 237 241 240 233 230 230 232 235 238 242 245 248 249 248 247 247 250
231 227 213 178 170 178 189 198 199 198 198 202 205 208 211 213 215 219 222 225 228 230 232 235 240 255 275 287 287 285 283 282 277 271 267 267 267 266 265 262 258 254 249 243 246 248 248 240 228 220 219 228 239 246 248 247 244 243 241 241 241 242 245 247 247 248 248 249 249
233 228 215 194 187 190 195 199 201 201 202 204 206 208 210 210 214 220 225 226 223 225 232 241 251 270 282 285 286 283 275 274 274 271 269 267 266 267 268 267 264 259 250 241 249 258 266 269 262 249 236 236 243 245 247 246 246 246 246 246 246 247 248 249 248 249 249 250 251
237 232 224 212 201 198 198 200 201 201 201 202 202 205 210 214 217 224 230 232 224 222 227 248 270 279 280 279 285 284 277 267 270 271 271 269 268 267 266 266 266 262 254 248 255 265 272 278 278 275 266 259 256 254 251 249 250 250 251 251 252 252 253 253 252 251 251 251 253
240 236 231 225 215 208 205 204 203 202 200 197 198 204 214 224 228 232 236 238 226 208 204 237 268 279 282 282 287 285 278 264 263 267 269 268 265 262 260 262 265 266 264 263 268 274 277 280 279 276 271 268 268 267 265 262 260 259 259 258 257 257 257 257 257 257 256 255 255
245 240 236 234 227 221 217 214 208 202 196 194 202 215 227 239 244 245 246 248 223 179 190 233 261 273 277 280 280 279 273 261 253 255 258 259 258 256 256 259 267 274 280 285 286 286 284 281 279 276 273 272 271 271 271 272 272 270 269 267 265 264 262 262 262 262 262 261 260
252 247 244 246 245 244 244 4 56 56 50 239 238 245 251 257 260 263 271 311 344 233 246 256 260 261 263 265 266 267 266 261 248 245 248 251 255 258 260 260 274 289 299 305 303 298 294 288 282 278 274 275 274 272 272 271 272 274 274 274 272 271 270 269 268 267 266 265 264
266 265 266 275 336 24 37 46 52 53 25 279 271 271 272 274 282 297 322 343 312 284 272 264 258 255 253 252 251 254 260 268 263 257 252 251 260 268 274 271 294 310 311 309 303 298 294 292 290 285 278 273 273 272 270 269 269 271 273 275 276 277 277 275 273 271 270 269 267
295 304 323 29 50 57 61 71 73 62 328 302 302 301 303 308 320 327 329 318 307 297 288 277 268 262 257 251 244 242 249 264 276 281 282 282 289 299 309 318 326 321 311 301 298 297 294 286 288 285 278 270 268 266 265 264 264 265 267 271 276 279 280 281 278 275 273 271 269
313 326 28 82 89 95 95 90 66 15 340 325 321 319 320 321 322 320 316 311 308 304 299 292 286 283 278 271 255 241 239 249 274 296 311 321 328 333 337 338 334 322 310 301 303 306 307 302 298 289 276 269 266 266 265 263 260 259 260 264 270 276 281 285 284 280 274 269 266
331 347 19 81 102 97 73 42 18 356 340 331 328 325 322 319 317 315 312 308 305 303 300 296 294 292 290 283 268 255 251 259 304 331 336 334 335 336 336 334 326 318 312 308 311 313 314 311 307 301 287 270 267 268 269 268 261 257 256 258 262 267 275 282 284 283 279 274 267
354 355 354 357 12 20 19 15 10 2 353 345 338 331 326 324 325 322 317 311 306 304 301 297 292 288 283 280 287 302 323 347 2 1 353 341 334 329 325 322 317 312 310 311 313 313 312 311 308 306 300 280 261 254 257 263 263 259 255 254 256 259 264 271 277 280 282 281 275
10 7 3 3 9 12 13 12 8 3 356 348 340 335 332 333 334 332 327 320 316 314 311 306 300 297 301 319 338 349 357 3 4 359 350 337 326 318 313 309 306 304 306 309 312 311 310 309 307 306 304 295 261 225 228 241 252 254 253 253 255 258 261 264 270 275 279 281 280
26 24 22 20 18 15 12 10 7 1 355 348 343 342 343 346 345 342 339 334 331 329 327 326 328 338 350 356 358 359 0 359 355 349 340 332 323 314 307 300 297 299 303 308 309 309 308 306 306 306 307 312 277 198 202 220 238 249 255 257 258 260 263 266 271 275 278 281 283
32 34 33 30 25 20 15 11 5 0 355 351 352 355 356 357 355 352 350 347 345 344 344 347 353 358 0 359 358 356 352 345 340 335 332 327 319 311 303 298 297 298 303 307 307 307 306 305 307 308 312 319 291 217 209 225 240 253 261 266 265 266 267 269 273 276 278 281 283
34 35 33 29 23 17 10 3 358 354 352 353 356 358 359 357 355 354 354 355 354 353 354 357 1 0 357 355 355 349 340 330 327 325 323 318 310 303 299 297 295 297 300 304 304 304 304 305 309 312 314 316 301 268 240 245 251 259 264 269 270 271 271 274 275 276 277 278 280
31 31 28 23 15 6 358 350 346 344 345 348 350 350 350 348 347 350 354 359 358 357 357 360 358 355 350 347 344 337 329 323 320 316 311 306 301 298 296 296 294 294 296 300 300 300 301 305 310 312 313 313 305 291 268 262 262 264 267 268 270 270 271 274 276 276 276 276 276
25 24 21 14 4 354 345 338 334 333 333 335 337 337 337 336 337 344 351 359 359 356 355 355 351 345 338 334 329 324 319 313 309 306 304 302 299 297 296 295 292 291 293 296 297 298 301 305 309 311 311 311 307 297 282 273 272 272 273 273 272 271 270 270 272 273 274 274 274
18 14 10 1 350 341 333 328 324 321 320 322 322 322 323 325 330 335 341 346 339 336 334 334 327 318 309 304 304 305 306 304 304 303 303 302 301 298 295 292 288 289 292 295 296 298 301 304 308 309 310 310 307 299 287 282 281 280 279 278 278 276 274 271 269 269 270 270 271
359 353 345 334 325 320 317 313 310 308 308 309 309 310 312 316 316 316 314 305 297 295 296 295 290 287 284 281 279 286 294 300 302 303 303 305 304 300 295 290 287 291 295 298 299 300 302 305 307 309 310 310 306 296 287 283 282 281 280 280 280 279 276 273 271 271 270 269 270
316 311 305 300 299 300 301 300 300 301 304 306 307 311 315 316 310 305 301 297 298 301 302 302 306 306 304 300 294 288 287 294 299 301 302 303 302 298 293 291 291 296 301 305 304 303 303 304 306 308 309 309 303 293 286 282 281 281 281 282 282 282 281 280 278 277 276 274 274
286 287 288 290 295 300 304 306 310 314 318 321 321 324 326 322 314 314 324 336 323 317 312 309 309 307 304 301 299 292 287 286 293 297 299 300 297 293 292 294 295 298 303 307 307 306 304 304 306 308 309 307 301 294 289 286 285 284 284 284 285 287 289 289 288 285 282 278 279
288 291 295 300 306 312 317 322 326 329 332 332 332 332 330 323 313 312 322 340 325 315 309 304 301 296 294 296 297 294 291 285 283 287 293 297 292 288 289 294 295 297 301 307 308 307 305 304 305 307 309 304 300 296 292 291 290 289 288 289 290 292 294 294 294 291 288 284 283
298 303 306 310 314 319 323 327 331 332 333 331 330 329 326 318 305 302 304 316 300 296 294 294 293 292 294 301 302 300 298 294 283 279 283 290 288 286 286 287 292 295 300 306 308 308 306 305 305 307 308 304 301 296 293 294 293 292 292 293 295 295 294 293 292 290 287 282 281
306 308 309 311 314 318 321 326 328 329 330 330 329 325 319 307 294 294 299 299 279 274 278 283 288 292 297 304 303 303 303 304 299 290 284 288 291 296 297 287 290 293 298 304 307 307 307 306 306 308 309 305 303 299 296 298 298 298 298 297 298 299 298 295 291 286 281 276 275
306 305 306 307 310 315 320 324 324 326 327 329 323 312 298 284 283 289 299 307 291 282 280 285 292 296 299 302 299 302 306 309 307 304 298 296 297 302 303 291 291 293 296 301 305 307 308 308 308 310 311 309 308 305 305 306 307 305 304 303 302 300 298 296 291 285 280 277 274